Location: Caltech
(34.1382°N, 118.1253°W)
Time: 15:58:39
(UTC-08:00)

Courier 1B - Visible Passes

Search period start: 08 December 2016 00:00
Search period end: 18 December 2016 00:00
Orbit: 962 x 1209 km, 28.3° (Epoch: 08 December)

Date Brightness Start Highest point End Pass type
(mag) Time Alt. Az. Time Alt. Az. Time Alt. Az.
08 Dec 10.5 05:17:09 10° S 05:20:03 12° SSE 05:22:57 10° SE visible
09 Dec 10.0 06:13:30 10° SSW 06:19:48 27° SSE 06:26:03 10° ESE visible
10 Dec 10.1 05:20:32 10° SSW 05:26:03 21° SSE 05:31:36 10° ESE visible
11 Dec 10.2 04:28:02 10° S 04:32:21 16° SSE 04:36:42 10° ESE visible
11 Dec 9.4 06:18:50 10° SW 06:25:53 37° SSE 06:32:57 10° E visible
12 Dec 10.3 03:36:48 10° SSE 03:38:41 11° SSE 03:40:34 10° SE visible
12 Dec 9.5 05:25:29 10° SW 05:32:05 31° SSE 05:38:47 10° E visible
13 Dec 9.6 04:32:22 10° SSW 04:38:20 25° SSE 04:44:27 10° ESE visible
14 Dec 9.7 03:42:22 17° S 03:44:39 19° SSE 03:49:50 10° ESE visible
14 Dec 9.0 05:31:06 10° SW 05:38:13 42° SSE 05:45:31 10° E visible
15 Dec 10.2 02:52:36 13° SE 02:52:36 13° SE 02:54:39 10° ESE visible
15 Dec 9.1 04:39:33 18° SW 04:44:25 36° SSE 04:51:23 10° E visible
16 Dec 9.1 03:49:39 28° S 03:50:41 29° SSE 03:57:08 10° E visible
16 Dec 8.6 05:37:06 10° WSW 05:44:26 51° S 05:52:00 10° E visible
17 Dec 9.8 02:59:40 19° SE 02:59:40 19° SE 03:02:41 10° ESE visible
17 Dec 8.6 04:46:35 25° SW 04:50:35 46° SSE 04:57:58 10° E visible
